Time,TemperatureF,DewpointF,PressureIn,WindDirection,WindDirectionDegrees,WindSpeedMPH,WindSpeedGustMPH,Humidity,HourlyPrecipIn,Conditions,Clouds,dailyrainin,SoftwareType,DateUTC
2013-06-20 00:00:00,50.9,49.2,29.84,WSW,250,0.0,0.0,94,0.02,,-RA,0.31,VWS V14.01,2013-06-20 07:00:00,
2013-06-20 00:06:00,50.9,49.2,29.83,WSW,250,0.0,0.0,94,0.02,,OVC037,0.00,VWS V14.01,2013-06-20 07:06:00,
2013-06-20 00:11:00,50.9,49.2,29.83,North,357,0.0,0.0,94,0.02,,OVC037,0.00,VWS V14.01,2013-06-20 07:11:00,
2013-06-20 00:16:00,50.9,49.2,29.83,NW,313,0.0,0.0,94,0.01,,OVC037,0.00,VWS V14.01,2013-06-20 07:16:00,
2013-06-20 00:21:00,50.9,49.2,29.83,WSW,244,0.0,0.0,94,0.02,,OVC037,0.01,VWS V14.01,2013-06-20 07:21:00,
2013-06-20 00:26:00,50.9,49.2,29.83,WSW,251,0.0,0.0,94,0.02,,OVC037,0.01,VWS V14.01,2013-06-20 07:26:00,
2013-06-20 00:31:00,50.9,49.2,29.83,WSW,251,0.0,1.0,94,0.02,,OVC037,0.01,VWS V14.01,2013-06-20 07:31:00,
2013-06-20 00:36:00,50.9,49.2,29.82,WSW,251,0.0,0.0,94,0.02,,OVC037,0.01,VWS V14.01,2013-06-20 07:36:00,
2013-06-20 00:41:00,50.8,49.1,29.82,WSW,251,0.0,0.0,94,0.02,,OVC037,0.01,VWS V14.01,2013-06-20 07:41:00,
2013-06-20 00:46:00,50.8,49.1,29.82,WSW,251,0.0,0.0,94,0.02,,OVC037,0.01,VWS V14.01,2013-06-20 07:46:00,
2013-06-20 00:51:00,50.8,49.1,29.81,SSW,196,0.0,0.0,94,0.02,,OVC037,0.01,VWS V14.01,2013-06-20 07:51:00,
2013-06-20 00:56:00,50.8,49.1,29.81,WNW,294,0.0,0.0,94,0.01,,OVC037,0.01,VWS V14.01,2013-06-20 07:56:00,
2013-06-20 01:01:00,50.9,49.2,29.81,WNW,294,0.0,0.0,94,0.01,,-RA,0.01,VWS V14.01,2013-06-20 08:01:00,
2013-06-20 01:06:00,50.9,49.2,29.81,WSW,250,0.0,0.0,94,0.01,,-RA,0.01,VWS V14.01,2013-06-20 08:06:00,
2013-06-20 01:12:00,50.9,49.2,29.81,ESE,116,0.0,0.0,94,0.01,,-RA,0.01,VWS V14.01,2013-06-20 08:12:00,
2013-06-20 01:17:00,50.9,49.2,29.81,ESE,116,0.0,0.0,94,0.02,,-RA,0.02,VWS V14.01,2013-06-20 08:17:00,
2013-06-20 01:22:00,50.9,49.2,29.80,WSW,243,0.0,1.0,94,0.02,,-RA,0.03,VWS V14.01,2013-06-20 08:22:00,
2013-06-20 01:27:00,50.9,49.2,29.80,SSW,213,2.0,2.0,94,0.02,,-RA,0.03,VWS V14.01,2013-06-20 08:27:00,
2013-06-20 01:32:00,51.1,49.4,29.80,West,263,0.0,0.0,94,0.02,,-RA,0.03,VWS V14.01,2013-06-20 08:32:00,
2013-06-20 01:37:00,51.1,49.4,29.80,NW,315,0.0,0.0,94,0.03,,-RA,0.04,VWS V14.01,2013-06-20 08:37:00,
2013-06-20 01:42:00,51.1,49.4,29.80,NW,315,0.0,0.0,94,0.03,,-RA,0.04,VWS V14.01,2013-06-20 08:42:00,
2013-06-20 01:47:00,51.1,49.4,29.80,WSW,239,1.0,1.0,94,0.03,,-RA,0.04,VWS V14.01,2013-06-20 08:47:00,
2013-06-20 01:52:00,51.1,49.4,29.80,WNW,295,0.0,0.0,94,0.03,,-RA,0.04,VWS V14.01,2013-06-20 08:52:00,
2013-06-20 01:57:00,51.1,49.4,29.80,WNW,295,0.0,0.0,94,0.03,,-RA,0.04,VWS V14.01,2013-06-20 08:57:00,
2013-06-20 02:02:00,51.1,49.4,29.80,North,0,1.0,1.0,94,0.05,,-RA,0.06,VWS V14.01,2013-06-20 09:02:00,
2013-06-20 02:07:00,51.1,49.4,29.80,SW,236,0.0,0.0,94,0.05,,-RA,0.06,VWS V14.01,2013-06-20 09:07:00,
2013-06-20 02:12:00,51.1,49.4,29.80,SW,230,0.0,0.0,94,0.06,,-RA,0.07,VWS V14.01,2013-06-20 09:12:00,
2013-06-20 02:17:00,51.1,49.4,29.79,West,274,0.0,0.0,94,0.05,,-RA,0.07,VWS V14.01,2013-06-20 09:17:00,
2013-06-20 02:22:00,51.1,49.4,29.79,SW,220,0.0,0.0,94,0.06,,-RA,0.09,VWS V14.01,2013-06-20 09:22:00,
2013-06-20 02:27:00,51.1,49.4,29.79,SW,220,0.0,0.0,94,0.06,,-RA,0.09,VWS V14.01,2013-06-20 09:27:00,
2013-06-20 02:33:00,51.1,49.4,29.79,SW,220,0.0,0.0,94,0.08,,-RA,0.11,VWS V14.01,2013-06-20 09:33:00,
2013-06-20 02:38:00,50.9,49.2,29.79,NW,306,0.0,0.0,94,0.09,,-RA,0.13,VWS V14.01,2013-06-20 09:38:00,
2013-06-20 02:43:00,50.9,49.2,29.79,South,174,0.0,1.0,94,0.10,,-RA,0.14,VWS V14.01,2013-06-20 09:43:00,
2013-06-20 02:48:00,50.9,49.5,29.79,South,171,0.0,0.0,95,0.12,,-RA,0.16,VWS V14.01,2013-06-20 09:48:00,
2013-06-20 02:53:00,50.9,49.5,29.79,South,171,0.0,0.0,95,0.13,,-RA,0.17,VWS V14.01,2013-06-20 09:53:00,
2013-06-20 02:58:00,50.9,49.5,29.79,SW,233,0.0,0.0,95,0.14,,-RA,0.18,VWS V14.01,2013-06-20 09:58:00,
2013-06-20 03:03:00,50.9,49.5,29.79,NW,305,0.0,0.0,95,0.13,,RA,0.19,VWS V14.01,2013-06-20 10:03:00,
2013-06-20 03:08:00,50.9,49.5,29.79,West,281,1.0,1.0,95,0.15,,RA,0.21,VWS V14.01,2013-06-20 10:08:00,
2013-06-20 03:13:00,50.8,49.4,29.79,WNW,294,5.0,5.0,95,0.14,,RA,0.21,VWS V14.01,2013-06-20 10:13:00,
2013-06-20 03:18:00,50.8,49.4,29.79,NW,304,0.0,0.0,95,0.16,,RA,0.23,VWS V14.01,2013-06-20 10:18:00,
2013-06-20 03:23:00,50.8,49.4,29.79,WNW,294,0.0,0.0,95,0.15,,RA,0.24,VWS V14.01,2013-06-20 10:23:00,
2013-06-20 03:28:00,50.6,49.2,29.79,SSW,193,0.0,0.0,95,0.15,,RA,0.24,VWS V14.01,2013-06-20 10:28:00,
2013-06-20 03:33:00,50.6,49.2,29.79,WNW,292,0.0,0.0,95,0.13,,RA,0.24,VWS V14.01,2013-06-20 10:33:00,
2013-06-20 03:38:00,50.6,49.2,29.79,WNW,302,1.0,1.0,95,0.15,,RA,0.28,VWS V14.01,2013-06-20 10:38:00,
2013-06-20 03:43:00,50.6,49.2,29.79,SW,223,0.0,0.0,95,0.16,,RA,0.30,VWS V14.01,2013-06-20 10:43:00,
2013-06-20 03:49:00,50.5,49.1,29.78,WNW,289,3.0,3.0,95,0.14,,RA,0.30,VWS V14.01,2013-06-20 10:49:00,
2013-06-20 03:54:00,50.5,49.1,29.78,West,280,2.0,2.0,95,0.17,,RA,0.34,VWS V14.01,2013-06-20 10:54:00,
2013-06-20 03:59:00,50.4,49.0,29.78,WNW,288,1.0,1.0,95,0.16,,RA,0.34,VWS V14.01,2013-06-20 10:59:00,
2013-06-20 04:04:00,50.2,48.8,29.78,West,280,0.0,1.0,95,0.17,,RA,0.36,VWS V14.01,2013-06-20 11:04:00,
2013-06-20 04:09:00,50.2,48.8,29.78,SW,232,0.0,0.0,95,0.15,,RA,0.36,VWS V14.01,2013-06-20 11:09:00,
2013-06-20 04:14:00,50.2,48.8,29.78,NW,323,0.0,0.0,95,0.15,,RA,0.36,VWS V14.01,2013-06-20 11:14:00,
2013-06-20 04:19:00,50.1,48.7,29.77,South,189,1.0,1.0,95,0.15,,RA,0.38,VWS V14.01,2013-06-20 11:19:00,
2013-06-20 04:24:00,50.1,48.7,29.77,WNW,294,5.0,5.0,95,0.15,,RA,0.39,VWS V14.01,2013-06-20 11:24:00,
2013-06-20 04:29:00,50.1,48.7,29.77,West,277,1.0,1.0,95,0.16,,RA,0.40,VWS V14.01,2013-06-20 11:29:00,
2013-06-20 04:34:00,49.9,48.5,29.78,NW,308,0.0,0.0,95,0.13,,RA,0.40,VWS V14.01,2013-06-20 11:34:00,
2013-06-20 04:39:00,49.9,48.5,29.78,North,1,0.0,0.0,95,0.13,,RA,0.41,VWS V14.01,2013-06-20 11:39:00,
2013-06-20 04:44:00,49.9,48.5,29.78,WNW,302,0.0,0.0,95,0.12,,RA,0.42,VWS V14.01,2013-06-20 11:44:00,
2013-06-20 04:49:00,49.9,48.5,29.78,NW,304,0.0,1.0,95,0.12,,RA,0.42,VWS V14.01,2013-06-20 11:49:00,
2013-06-20 04:54:00,49.9,48.5,29.78,SE,126,0.0,0.0,95,0.08,,RA,0.42,VWS V14.01,2013-06-20 11:54:00,
2013-06-20 05:00:00,49.9,48.5,29.78,WNW,296,2.0,2.0,95,0.08,,RA,0.42,VWS V14.01,2013-06-20 12:00:00,
2013-06-20 05:05:00,49.8,48.4,29.78,WSW,251,0.0,0.0,95,0.08,,-RA,0.44,VWS V14.01,2013-06-20 12:05:00,
2013-06-20 05:10:00,49.8,48.4,29.78,WNW,301,0.0,0.0,95,0.08,,-RA,0.44,VWS V14.01,2013-06-20 12:10:00,
2013-06-20 05:15:00,49.8,48.4,29.78,WNW,301,0.0,0.0,95,0.09,,-RA,0.45,VWS V14.01,2013-06-20 12:15:00,
2013-06-20 05:20:00,49.8,48.4,29.78,SSW,209,0.0,0.0,95,0.07,,-RA,0.45,VWS V14.01,2013-06-20 12:20:00,
2013-06-20 05:25:00,49.8,48.4,29.78,WSW,258,0.0,0.0,95,0.07,,-RA,0.46,VWS V14.01,2013-06-20 12:25:00,
2013-06-20 05:30:00,49.8,48.4,29.78,WSW,258,0.0,0.0,95,0.07,,-RA,0.47,VWS V14.01,2013-06-20 12:30:00,
2013-06-20 05:35:00,49.6,48.2,29.79,WNW,289,0.0,0.0,95,0.07,,-RA,0.47,VWS V14.01,2013-06-20 12:35:00,
2013-06-20 05:40:00,49.6,48.2,29.79,WNW,288,1.0,1.0,95,0.07,,-RA,0.48,VWS V14.01,2013-06-20 12:40:00,
2013-06-20 05:45:00,49.6,48.2,29.79,WSW,250,0.0,0.0,95,0.07,,-RA,0.49,VWS V14.01,2013-06-20 12:45:00,
2013-06-20 05:50:00,49.8,48.4,29.79,NW,315,0.0,0.0,95,0.08,,-RA,0.50,VWS V14.01,2013-06-20 12:50:00,
2013-06-20 05:56:00,49.8,48.4,29.79,WSW,251,0.0,0.0,95,0.08,,-RA,0.50,VWS V14.01,2013-06-20 12:56:00,
2013-06-20 06:01:00,49.8,48.4,29.79,West,278,0.0,0.0,95,0.09,,-RA,0.51,VWS V14.01,2013-06-20 13:01:00,
2013-06-20 06:06:00,49.8,48.4,29.79,WNW,285,0.0,1.0,95,0.07,,-RA,0.51,VWS V14.01,2013-06-20 13:06:00,
2013-06-20 06:11:00,49.8,48.4,29.79,West,271,1.0,3.0,95,0.08,,-RA,0.53,VWS V14.01,2013-06-20 13:11:00,
2013-06-20 06:16:00,49.8,48.4,29.79,NW,322,0.0,0.0,95,0.08,,-RA,0.53,VWS V14.01,2013-06-20 13:16:00,
2013-06-20 06:21:00,49.8,48.4,29.80,SW,223,0.0,0.0,95,0.08,,-RA,0.53,VWS V14.01,2013-06-20 13:21:00,
2013-06-20 06:26:00,49.8,48.4,29.80,SSW,195,1.0,1.0,95,0.06,,-RA,0.53,VWS V14.01,2013-06-20 13:26:00,
2013-06-20 06:31:00,49.8,48.4,29.80,SW,230,0.0,0.0,95,0.08,,-RA,0.55,VWS V14.01,2013-06-20 13:31:00,
2013-06-20 06:36:00,49.8,48.4,29.80,SSW,213,0.0,1.0,95,0.08,,-RA,0.55,VWS V14.01,2013-06-20 13:36:00,
2013-06-20 06:41:00,49.8,48.4,29.80,West,278,3.0,3.0,95,0.07,,-RA,0.55,VWS V14.01,2013-06-20 13:41:00,
2013-06-20 06:46:00,49.8,48.4,29.80,NW,311,0.0,0.0,95,0.08,,-RA,0.57,VWS V14.01,2013-06-20 13:46:00,
2013-06-20 06:51:00,49.9,48.5,29.80,WNW,289,0.0,0.0,95,0.07,,-RA,0.57,VWS V14.01,2013-06-20 13:51:00,
2013-06-20 06:57:00,49.9,48.5,29.80,West,263,0.0,0.0,95,0.07,,-RA,0.57,VWS V14.01,2013-06-20 13:57:00,
2013-06-20 07:02:00,49.9,48.5,29.80,SW,215,0.0,0.0,95,0.08,,-RA,0.59,VWS V14.01,2013-06-20 14:02:00,
2013-06-20 07:07:00,49.9,48.5,29.81,WSW,253,0.0,0.0,95,0.08,,-RA,0.59,VWS V14.01,2013-06-20 14:07:00,
2013-06-20 07:12:00,49.9,48.5,29.81,WSW,253,0.0,0.0,95,0.07,,-RA,0.60,VWS V14.01,2013-06-20 14:12:00,
2013-06-20 07:17:00,50.1,48.7,29.82,SW,234,0.0,0.0,95,0.07,,-RA,0.60,VWS V14.01,2013-06-20 14:17:00,
2013-06-20 07:22:00,50.1,48.7,29.82,West,272,0.0,0.0,95,0.07,,-RA,0.60,VWS V14.01,2013-06-20 14:22:00,
2013-06-20 07:27:00,50.1,48.7,29.82,ESE,116,0.0,2.0,95,0.08,,-RA,0.61,VWS V14.01,2013-06-20 14:27:00,
2013-06-20 07:32:00,50.1,48.7,29.82,WSW,240,0.0,0.0,95,0.07,,-RA,0.62,VWS V14.01,2013-06-20 14:32:00,
2013-06-20 07:37:00,49.9,48.5,29.82,WSW,237,0.0,0.0,95,0.08,,-RA,0.63,VWS V14.01,2013-06-20 14:37:00,
2013-06-20 07:42:00,50.1,48.7,29.82,WSW,241,0.0,0.0,95,0.08,,-RA,0.63,VWS V14.01,2013-06-20 14:42:00,
2013-06-20 07:47:00,50.1,48.7,29.82,WNW,298,0.0,0.0,95,0.07,,-RA,0.64,VWS V14.01,2013-06-20 14:47:00,
2013-06-20 07:53:00,49.9,48.5,29.82,SSE,168,0.0,0.0,95,0.08,,-RA,0.65,VWS V14.01,2013-06-20 14:53:00,
2013-06-20 07:58:00,49.9,48.5,29.82,SSE,168,0.0,0.0,95,0.09,,-RA,0.66,VWS V14.01,2013-06-20 14:58:00,
2013-06-20 08:03:00,49.9,48.8,29.82,NE,34,0.0,0.0,96,0.07,,-RA,0.66,VWS V14.01,2013-06-20 15:03:00,
2013-06-20 08:08:00,50.1,49.0,29.82,NW,325,0.0,1.0,96,0.08,,-RA,0.67,VWS V14.01,2013-06-20 15:08:00,
2013-06-20 08:13:00,50.1,49.0,29.82,NW,323,2.0,2.0,96,0.07,,-RA,0.67,VWS V14.01,2013-06-20 15:13:00,
2013-06-20 08:18:00,50.1,49.0,29.82,NNE,13,0.0,0.0,96,0.07,,-RA,0.67,VWS V14.01,2013-06-20 15:18:00,
2013-06-20 08:23:00,50.2,49.1,29.82,West,278,0.0,0.0,96,0.09,,-RA,0.69,VWS V14.01,2013-06-20 15:23:00,
2013-06-20 08:28:00,50.2,49.1,29.82,NE,51,0.0,0.0,96,0.08,,-RA,0.69,VWS V14.01,2013-06-20 15:28:00,
2013-06-20 08:33:00,50.4,49.3,29.83,NE,56,0.0,0.0,96,0.07,,-RA,0.69,VWS V14.01,2013-06-20 15:33:00,
2013-06-20 08:38:00,50.2,49.1,29.83,NW,308,0.0,0.0,96,0.08,,-RA,0.71,VWS V14.01,2013-06-20 15:38:00,
2013-06-20 08:43:00,50.1,48.7,29.83,NW,308,0.0,0.0,95,0.09,,-RA,0.73,VWS V14.01,2013-06-20 15:43:00,
2013-06-20 08:48:00,50.2,48.8,29.83,SW,233,0.0,0.0,95,0.09,,-RA,0.73,VWS V14.01,2013-06-20 15:48:00,
2013-06-20 08:53:00,50.2,49.1,29.83,SW,236,0.0,0.0,96,0.08,,-RA,0.73,VWS V14.01,2013-06-20 15:53:00,
2013-06-20 08:59:00,50.2,49.1,29.83,SSW,199,0.0,0.0,96,0.08,,-RA,0.74,VWS V14.01,2013-06-20 15:59:00,
2013-06-20 09:04:00,50.2,49.1,29.84,NW,322,0.0,0.0,96,0.08,,-RA,0.74,VWS V14.01,2013-06-20 16:04:00,
2013-06-20 09:09:00,50.2,49.1,29.84,NW,322,0.0,0.0,96,0.07,,-RA,0.74,VWS V14.01,2013-06-20 16:09:00,
2013-06-20 09:14:00,50.2,49.1,29.84,NW,322,0.0,0.0,96,0.07,,-RA,0.74,VWS V14.01,2013-06-20 16:14:00,
2013-06-20 09:19:00,50.2,49.1,29.84,NW,322,0.0,0.0,96,0.07,,-RA,0.74,VWS V14.01,2013-06-20 16:19:00,
2013-06-20 09:24:00,50.2,49.1,29.84,NW,322,0.0,0.0,96,0.05,,-RA,0.74,VWS V14.01,2013-06-20 16:24:00,
2013-06-20 09:29:00,50.2,49.1,29.84,NW,322,0.0,0.0,96,0.05,,-RA,0.74,VWS V14.01,2013-06-20 16:29:00,
2013-06-20 09:34:00,50.2,49.1,29.84,NW,322,0.0,0.0,96,0.04,,-RA,0.74,VWS V14.01,2013-06-20 16:34:00,
2013-06-20 09:39:00,50.5,49.4,29.84,NNE,32,0.0,0.0,96,0.03,,-RA,0.74,VWS V14.01,2013-06-20 16:39:00,
2013-06-20 09:44:00,50.5,49.4,29.84,WNW,287,0.0,1.0,96,0.07,,-RA,0.80,VWS V14.01,2013-06-20 16:44:00,
2013-06-20 09:49:00,50.5,49.4,29.85,NE,49,0.0,0.0,96,0.07,,-RA,0.80,VWS V14.01,2013-06-20 16:49:00,
2013-06-20 09:54:00,50.5,49.4,29.85,SW,224,0.0,0.0,96,0.08,,-RA,0.81,VWS V14.01,2013-06-20 16:54:00,
2013-06-20 09:59:00,50.4,49.0,29.85,SW,224,0.0,2.0,95,0.08,,-RA,0.82,VWS V14.01,2013-06-20 16:59:00,
2013-06-20 10:05:00,50.1,48.7,29.85,SW,224,0.0,0.0,95,0.08,,RA,0.82,VWS V14.01,2013-06-20 17:05:00,
2013-06-20 10:10:00,49.9,48.5,29.85,SW,224,0.0,0.0,95,0.10,,RA,0.84,VWS V14.01,2013-06-20 17:10:00,
2013-06-20 10:15:00,49.8,48.4,29.85,SW,224,0.0,0.0,95,0.10,,RA,0.84,VWS V14.01,2013-06-20 17:15:00,
2013-06-20 10:20:00,49.8,48.4,29.85,WNW,298,3.0,3.0,95,0.13,,RA,0.87,VWS V14.01,2013-06-20 17:20:00,
2013-06-20 10:25:00,49.6,48.2,29.85,South,191,0.0,0.0,95,0.13,,RA,0.87,VWS V14.01,2013-06-20 17:25:00,
2013-06-20 10:30:00,49.6,48.2,29.85,South,191,0.0,0.0,95,0.13,,RA,0.87,VWS V14.01,2013-06-20 17:30:00,
2013-06-20 10:35:00,49.6,48.2,29.85,West,260,1.0,1.0,95,0.13,,RA,0.87,VWS V14.01,2013-06-20 17:35:00,
2013-06-20 10:40:00,49.8,48.4,29.85,WNW,289,0.0,0.0,95,0.16,,RA,0.90,VWS V14.01,2013-06-20 17:40:00,
2013-06-20 10:45:00,49.6,48.2,29.85,SW,219,0.0,0.0,95,0.10,,RA,0.90,VWS V14.01,2013-06-20 17:45:00,
2013-06-20 10:50:00,49.6,48.2,29.86,NW,313,0.0,0.0,95,0.10,,RA,0.90,VWS V14.01,2013-06-20 17:50:00,
2013-06-20 10:55:00,49.6,48.2,29.86,SW,219,1.0,1.0,95,0.10,,RA,0.91,VWS V14.01,2013-06-20 17:55:00,
2013-06-20 11:00:00,49.6,48.2,29.86,WSW,248,0.0,0.0,95,0.10,,RA,0.92,VWS V14.01,2013-06-20 18:00:00,
2013-06-20 11:05:00,49.3,47.7,29.87,WSW,239,1.0,1.0,94,0.10,,-RA,0.92,VWS V14.01,2013-06-20 18:05:00,
2013-06-20 11:10:00,49.3,47.7,29.87,WSW,239,0.0,0.0,94,0.08,,-RA,0.92,VWS V14.01,2013-06-20 18:10:00,
2013-06-20 11:15:00,49.3,47.7,29.87,WSW,253,0.0,0.0,94,0.08,,-RA,0.92,VWS V14.01,2013-06-20 18:15:00,
2013-06-20 11:20:00,49.3,47.7,29.88,SW,216,0.0,0.0,94,0.08,,-RA,0.95,VWS V14.01,2013-06-20 18:20:00,
2013-06-20 11:26:00,49.5,47.8,29.88,West,272,0.0,0.0,94,0.08,,-RA,0.95,VWS V14.01,2013-06-20 18:26:00,
2013-06-20 11:31:00,49.5,47.8,29.88,WSW,250,0.0,0.0,94,0.08,,-RA,0.95,VWS V14.01,2013-06-20 18:31:00,
2013-06-20 11:36:00,49.3,47.7,29.89,WNW,284,0.0,0.0,94,0.08,,-RA,0.95,VWS V14.01,2013-06-20 18:36:00,
2013-06-20 11:41:00,49.0,47.3,29.89,WNW,284,0.0,0.0,94,0.09,,-RA,0.99,VWS V14.01,2013-06-20 18:41:00,
2013-06-20 11:46:00,49.0,47.3,29.89,WSW,240,0.0,0.0,94,0.10,,-RA,1.00,VWS V14.01,2013-06-20 18:46:00,
2013-06-20 11:51:00,48.9,47.2,29.89,West,268,0.0,0.0,94,0.10,,-RA,1.00,VWS V14.01,2013-06-20 18:51:00,
2013-06-20 11:56:00,48.9,47.2,29.89,West,268,0.0,0.0,94,0.12,,-RA,1.03,VWS V14.01,2013-06-20 18:56:00,
2013-06-20 12:01:00,49.0,47.3,29.89,West,268,0.0,0.0,94,0.12,,-RA,1.04,VWS V14.01,2013-06-20 19:01:00,
2013-06-20 12:06:00,49.2,47.8,29.90,West,268,0.0,0.0,95,0.13,,-RA,1.05,VWS V14.01,2013-06-20 19:06:00,
2013-06-20 12:11:00,49.3,47.9,29.90,West,268,0.0,0.0,95,0.13,,-RA,1.05,VWS V14.01,2013-06-20 19:11:00,
2013-06-20 12:16:00,49.6,48.2,29.90,West,268,0.0,0.0,95,0.13,,-RA,1.05,VWS V14.01,2013-06-20 19:16:00,
2013-06-20 12:22:00,49.8,48.4,29.90,WSW,241,0.0,0.0,95,0.12,,-RA,1.07,VWS V14.01,2013-06-20 19:22:00,
2013-06-20 12:27:00,49.8,48.4,29.90,WSW,241,0.0,0.0,95,0.12,,-RA,1.07,VWS V14.01,2013-06-20 19:27:00,
2013-06-20 12:32:00,49.8,48.2,29.90,WSW,243,0.0,0.0,94,0.12,,-RA,1.07,VWS V14.01,2013-06-20 19:32:00,
2013-06-20 12:37:00,49.5,47.8,29.91,ENE,73,0.0,0.0,94,0.14,,-RA,1.09,VWS V14.01,2013-06-20 19:37:00,
2013-06-20 12:42:00,49.6,48.2,29.91,ESE,117,1.0,1.0,95,0.11,,-RA,1.10,VWS V14.01,2013-06-20 19:42:00,
2013-06-20 12:47:00,49.6,48.2,29.91,ESE,117,0.0,0.0,95,0.10,,-RA,1.10,VWS V14.01,2013-06-20 19:47:00,
2013-06-20 12:52:00,49.6,48.2,29.92,NE,40,1.0,2.0,95,0.12,,-RA,1.12,VWS V14.01,2013-06-20 19:52:00,
2013-06-20 12:57:00,49.3,47.9,29.92,WSW,257,0.0,0.0,95,0.10,,-RA,1.13,VWS V14.01,2013-06-20 19:57:00,
2013-06-20 13:02:00,49.2,47.8,29.92,ENE,72,1.0,1.0,95,0.11,,-RA,1.15,VWS V14.01,2013-06-20 20:02:00,
2013-06-20 13:07:00,49.2,47.5,29.92,SW,236,0.0,1.0,94,0.11,,-RA,1.16,VWS V14.01,2013-06-20 20:07:00,
2013-06-20 13:12:00,49.2,47.5,29.92,NW,326,0.0,1.0,94,0.12,,-RA,1.17,VWS V14.01,2013-06-20 20:12:00,
2013-06-20 13:17:00,49.3,47.7,29.93,SSE,158,0.0,0.0,94,0.12,,-RA,1.17,VWS V14.01,2013-06-20 20:17:00,
2013-06-20 13:22:00,49.3,47.7,29.93,West,264,0.0,0.0,94,0.11,,-RA,1.18,VWS V14.01,2013-06-20 20:22:00,
2013-06-20 13:27:00,49.2,47.5,29.93,SW,232,0.0,5.0,94,0.11,,-RA,1.18,VWS V14.01,2013-06-20 20:27:00,
2013-06-20 13:32:00,49.2,47.5,29.94,SW,219,0.0,0.0,94,0.12,,-RA,1.19,VWS V14.01,2013-06-20 20:32:00,
2013-06-20 13:37:00,49.3,47.7,29.94,SSW,208,0.0,1.0,94,0.11,,-RA,1.20,VWS V14.01,2013-06-20 20:37:00,
2013-06-20 13:42:00,49.5,47.8,29.94,North,353,1.0,1.0,94,0.10,,-RA,1.20,VWS V14.01,2013-06-20 20:42:00,
2013-06-20 13:48:00,49.5,47.8,29.94,WSW,239,0.0,0.0,94,0.11,,-RA,1.21,VWS V14.01,2013-06-20 20:48:00,
2013-06-20 13:53:00,49.3,47.7,29.94,WSW,241,0.0,0.0,94,0.10,,-RA,1.22,VWS V14.01,2013-06-20 20:53:00,
2013-06-20 13:58:00,49.5,47.8,29.94,WSW,241,0.0,0.0,94,0.10,,-RA,1.23,VWS V14.01,2013-06-20 20:58:00,
2013-06-20 14:03:00,49.5,47.8,29.94,WSW,241,0.0,0.0,94,0.09,,-RA,1.24,VWS V14.01,2013-06-20 21:03:00,
2013-06-20 14:08:00,49.5,47.8,29.94,WSW,241,0.0,0.0,94,0.08,,-RA,1.24,VWS V14.01,2013-06-20 21:08:00,
2013-06-20 14:13:00,49.5,47.8,29.94,West,281,0.0,0.0,94,0.08,,-RA,1.24,VWS V14.01,2013-06-20 21:13:00,
2013-06-20 14:18:00,49.6,48.0,29.95,West,281,0.0,0.0,94,0.10,,-RA,1.27,VWS V14.01,2013-06-20 21:18:00,
2013-06-20 14:23:00,49.8,48.4,29.95,West,281,0.0,0.0,95,0.09,,-RA,1.27,VWS V14.01,2013-06-20 21:23:00,
2013-06-20 14:28:00,49.9,48.5,29.95,NNE,17,0.0,0.0,95,0.10,,-RA,1.28,VWS V14.01,2013-06-20 21:28:00,
2013-06-20 14:33:00,49.9,48.5,29.95,WSW,251,0.0,3.0,95,0.10,,-RA,1.29,VWS V14.01,2013-06-20 21:33:00,
2013-06-20 17:41:00,50.4,49.0,30.00,West,270,0.0,0.0,95,0.06,,-RA,1.50,VWS V14.01,2013-06-21 00:41:00,
2013-06-20 17:46:00,50.4,49.0,30.00,West,268,0.0,0.0,95,0.07,,-RA,1.51,VWS V14.01,2013-06-21 00:46:00,
2013-06-20 17:51:00,50.4,49.0,30.01,West,270,0.0,0.0,95,0.06,,-RA,1.51,VWS V14.01,2013-06-21 00:51:00,
2013-06-20 17:56:00,50.4,49.0,30.01,West,268,0.0,0.0,95,0.07,,-RA,1.53,VWS V14.01,2013-06-21 00:56:00,
2013-06-20 18:01:00,50.4,49.0,30.01,West,268,0.0,0.0,95,0.08,,-RA,1.54,VWS V14.01,2013-06-21 01:01:00,
2013-06-20 18:06:00,50.4,49.0,30.01,West,268,0.0,0.0,95,0.07,,-RA,1.54,VWS V14.01,2013-06-21 01:06:00,
2013-06-20 18:11:00,50.6,49.2,30.01,West,270,0.0,0.0,95,0.07,,-RA,1.54,VWS V14.01,2013-06-21 01:11:00,
2013-06-20 18:16:00,50.5,49.1,30.01,West,267,0.0,0.0,95,0.07,,-RA,1.55,VWS V14.01,2013-06-21 01:16:00,
2013-06-20 18:21:00,50.5,49.1,30.01,West,267,0.0,0.0,95,0.07,,-RA,1.56,VWS V14.01,2013-06-21 01:21:00,
2013-06-20 18:27:00,50.5,49.1,30.01,West,267,0.0,0.0,95,0.07,,-RA,1.56,VWS V14.01,2013-06-21 01:27:00,
2013-06-20 18:32:00,50.5,49.1,30.01,SSE,165,0.0,0.0,95,0.06,,-RA,1.56,VWS V14.01,2013-06-21 01:32:00,
2013-06-20 18:37:00,50.5,49.1,30.01,SSW,208,0.0,0.0,95,0.06,,-RA,1.56,VWS V14.01,2013-06-21 01:37:00,
2013-06-20 18:42:00,50.5,49.1,30.01,SSW,208,0.0,0.0,95,0.06,,-RA,1.57,VWS V14.01,2013-06-21 01:42:00,
2013-06-20 18:47:00,50.5,49.1,30.01,SSW,208,0.0,0.0,95,0.06,,-RA,1.57,VWS V14.01,2013-06-21 01:47:00,
2013-06-20 18:52:00,50.4,49.0,30.01,SSW,208,0.0,0.0,95,0.06,,-RA,1.57,VWS V14.01,2013-06-21 01:52:00,
2013-06-20 18:57:00,50.4,49.0,30.01,SSW,208,0.0,0.0,95,0.05,,-RA,1.58,VWS V14.01,2013-06-21 01:57:00,
2013-06-20 19:02:00,50.4,49.0,30.02,SSW,208,0.0,0.0,95,0.04,,-RA,1.58,VWS V14.01,2013-06-21 02:02:00,
2013-06-20 19:07:00,50.4,49.0,30.02,SSW,208,0.0,0.0,95,0.04,,-RA,1.58,VWS V14.01,2013-06-21 02:07:00,
2013-06-20 19:12:00,50.4,49.0,30.02,SSW,208,0.0,0.0,95,0.05,,-RA,1.59,VWS V14.01,2013-06-21 02:12:00,
2013-06-20 19:17:00,50.4,49.0,30.02,SSW,208,0.0,0.0,95,0.04,,-RA,1.59,VWS V14.01,2013-06-21 02:17:00,
2013-06-20 19:22:00,50.4,49.0,30.02,SSW,208,0.0,0.0,95,0.03,,-RA,1.59,VWS V14.01,2013-06-21 02:22:00,
2013-06-20 19:28:00,50.4,49.0,30.02,SSW,208,0.0,0.0,95,0.03,,-RA,1.59,VWS V14.01,2013-06-21 02:28:00,
2013-06-20 19:33:00,50.4,49.0,30.02,SSW,208,0.0,0.0,95,0.03,,-RA,1.59,VWS V14.01,2013-06-21 02:33:00,
2013-06-20 19:38:00,50.5,49.1,30.02,SSW,208,0.0,0.0,95,0.03,,-RA,1.59,VWS V14.01,2013-06-21 02:38:00,
2013-06-20 19:43:00,50.5,49.1,30.02,SSW,208,0.0,0.0,95,0.02,,-RA,1.59,VWS V14.01,2013-06-21 02:43:00,
2013-06-20 19:48:00,50.5,49.1,30.02,SSW,208,0.0,0.0,95,0.02,,-RA,1.59,VWS V14.01,2013-06-21 02:48:00,
2013-06-20 19:53:00,50.5,49.1,30.02,SSW,208,0.0,0.0,95,0.02,,-RA,1.59,VWS V14.01,2013-06-21 02:53:00,
2013-06-20 19:58:00,50.5,49.1,30.02,SSW,208,0.0,0.0,95,0.01,,-RA,1.59,VWS V14.01,2013-06-21 02:58:00,
2013-06-20 20:03:00,50.5,49.1,30.02,SSW,208,0.0,0.0,95,0.01,,-RA,1.59,VWS V14.01,2013-06-21 03:03:00,
2013-06-20 20:08:00,50.5,49.1,30.02,SSW,208,0.0,0.0,95,0.02,,-RA,1.60,VWS V14.01,2013-06-21 03:08:00,
2013-06-20 20:13:00,50.5,49.1,30.02,SSW,208,0.0,0.0,95,0.01,,-RA,1.60,VWS V14.01,2013-06-21 03:13:00,
2013-06-20 20:19:00,50.5,49.1,30.02,SSW,208,0.0,0.0,95,0.01,,-RA,1.60,VWS V14.01,2013-06-21 03:19:00,
2013-06-20 20:24:00,50.5,49.1,30.02,SSW,208,0.0,0.0,95,0.01,,-RA,1.60,VWS V14.01,2013-06-21 03:24:00,
2013-06-20 20:29:00,50.5,49.1,30.02,SSW,208,0.0,0.0,95,0.01,,-RA,1.60,VWS V14.01,2013-06-21 03:29:00,
2013-06-20 20:34:00,50.5,49.1,30.03,SSW,208,0.0,0.0,95,0.01,,-RA,1.60,VWS V14.01,2013-06-21 03:34:00,
2013-06-20 20:39:00,50.5,49.1,30.03,SSW,208,0.0,0.0,95,0.01,,-RA,1.60,VWS V14.01,2013-06-21 03:39:00,
2013-06-20 20:44:00,50.4,49.0,30.03,SSW,208,0.0,0.0,95,0.01,,-RA,1.60,VWS V14.01,2013-06-21 03:44:00,
2013-06-20 20:49:00,50.4,49.0,30.03,SSW,208,0.0,0.0,95,0.01,,-RA,1.60,VWS V14.01,2013-06-21 03:49:00,
2013-06-20 20:54:00,50.4,49.0,30.03,SSW,208,0.0,0.0,95,0.01,,-RA,1.60,VWS V14.01,2013-06-21 03:54:00,
2013-06-20 20:59:00,50.4,49.0,30.03,SSW,208,0.0,0.0,95,0.01,,-RA,1.60,VWS V14.01,2013-06-21 03:59:00,
2013-06-20 21:01:00,50.4,49.0,30.03,SSW,208,0.0,0.0,95,0.01,,-RA,1.60,VWS V14.01,2013-06-21 04:01:00,
2013-06-20 21:02:00,50.4,49.0,30.03,SSW,208,0.0,0.0,95,0.01,,-RA,1.60,VWS V14.01,2013-06-21 04:02:00,
2013-06-20 21:07:00,50.2,48.8,30.03,SSW,208,0.0,0.0,95,0.00,,-RA,1.60,VWS V14.01,2013-06-21 04:07:00,
2013-06-20 21:12:00,50.2,48.8,30.03,SSW,208,0.0,0.0,95,0.00,,-RA,1.60,VWS V14.01,2013-06-21 04:12:00,
2013-06-20 21:17:00,50.2,48.8,30.03,SSW,208,0.0,0.0,95,0.00,,-RA,1.60,VWS V14.01,2013-06-21 04:17:00,
2013-06-20 21:22:00,50.2,48.8,30.03,SSW,208,0.0,0.0,95,0.00,,-RA,1.60,VWS V14.01,2013-06-21 04:22:00,
2013-06-20 21:27:00,50.2,48.8,30.03,SSW,208,0.0,0.0,95,0.00,,-RA,1.60,VWS V14.01,2013-06-21 04:27:00,
2013-06-20 21:32:00,50.2,48.8,30.04,SSW,208,0.0,0.0,95,0.00,,-RA,1.60,VWS V14.01,2013-06-21 04:32:00,
2013-06-20 21:37:00,50.1,49.0,30.04,SSW,208,0.0,0.0,96,0.00,,-RA,1.60,VWS V14.01,2013-06-21 04:37:00,
2013-06-20 21:43:00,50.1,49.0,30.04,SSW,208,0.0,0.0,96,0.00,,-RA,1.60,VWS V14.01,2013-06-21 04:43:00,
2013-06-20 21:48:00,50.1,49.0,30.04,SSW,208,0.0,0.0,96,0.00,,-RA,1.60,VWS V14.01,2013-06-21 04:48:00,
2013-06-20 21:53:00,49.9,48.8,30.04,SSW,208,0.0,0.0,96,0.00,,-RA,1.60,VWS V14.01,2013-06-21 04:53:00,
2013-06-20 21:58:00,50.1,49.0,30.04,SSW,208,0.0,0.0,96,0.00,,-RA,1.60,VWS V14.01,2013-06-21 04:58:00,
2013-06-20 22:03:00,50.1,49.0,30.05,SSW,208,0.0,0.0,96,0.00,,OVC020,1.60,VWS V14.01,2013-06-21 05:03:00,
2013-06-20 22:08:00,50.1,49.0,30.05,SSW,208,0.0,0.0,96,0.00,,OVC020,1.60,VWS V14.01,2013-06-21 05:08:00,
2013-06-20 22:13:00,50.1,49.0,30.05,SSW,208,0.0,0.0,96,0.00,,OVC020,1.60,VWS V14.01,2013-06-21 05:13:00,
2013-06-20 22:18:00,50.1,49.0,30.04,SSW,208,0.0,0.0,96,0.00,,OVC020,1.60,VWS V14.01,2013-06-21 05:18:00,
2013-06-20 22:23:00,49.9,48.8,30.04,SSW,208,0.0,0.0,96,0.00,,OVC020,1.60,VWS V14.01,2013-06-21 05:23:00,
2013-06-20 22:28:00,49.9,48.8,30.04,SSW,208,0.0,0.0,96,0.00,,OVC020,1.60,VWS V14.01,2013-06-21 05:28:00,
2013-06-20 22:33:00,49.9,48.8,30.04,SSW,208,0.0,0.0,96,0.00,,OVC020,1.60,VWS V14.01,2013-06-21 05:33:00,
2013-06-20 22:39:00,49.8,49.0,30.04,SSW,208,0.0,0.0,97,0.01,,OVC020,1.61,VWS V14.01,2013-06-21 05:39:00,
2013-06-20 22:44:00,49.8,49.0,30.04,SSW,208,0.0,0.0,97,0.01,,OVC020,1.61,VWS V14.01,2013-06-21 05:44:00,
2013-06-20 22:49:00,49.8,49.0,30.04,SSW,208,0.0,0.0,97,0.01,,OVC020,1.61,VWS V14.01,2013-06-21 05:49:00,
2013-06-20 22:54:00,49.8,49.0,30.04,SSW,208,0.0,0.0,97,0.01,,OVC020,1.61,VWS V14.01,2013-06-21 05:54:00,
2013-06-20 22:59:00,49.8,49.0,30.04,SSW,208,0.0,0.0,97,0.01,,OVC020,1.61,VWS V14.01,2013-06-21 05:59:00,
2013-06-20 23:04:00,49.8,49.0,30.04,SSW,208,0.0,0.0,97,0.01,,-RA,1.61,VWS V14.01,2013-06-21 06:04:00,
2013-06-20 23:09:00,49.8,49.0,30.04,SSW,208,0.0,0.0,97,0.01,,-RA,1.61,VWS V14.01,2013-06-21 06:09:00,
2013-06-20 23:14:00,49.8,49.0,30.04,SSW,208,0.0,0.0,97,0.01,,-RA,1.61,VWS V14.01,2013-06-21 06:14:00,
2013-06-20 23:19:00,49.8,49.0,30.04,SSW,208,0.0,0.0,97,0.01,,-RA,1.61,VWS V14.01,2013-06-21 06:19:00,
2013-06-20 23:24:00,49.8,49.0,30.04,SSW,208,0.0,0.0,97,0.01,,-RA,1.61,VWS V14.01,2013-06-21 06:24:00,
2013-06-20 23:30:00,49.8,49.0,30.04,SSW,208,0.0,0.0,97,0.01,,-RA,1.61,VWS V14.01,2013-06-21 06:30:00,
2013-06-20 23:35:00,49.8,49.0,30.04,SSW,208,0.0,0.0,97,0.01,,-RA,1.61,VWS V14.01,2013-06-21 06:35:00,
2013-06-20 23:40:00,49.8,49.0,30.04,SSW,208,0.0,0.0,97,0.00,,-RA,1.61,VWS V14.01,2013-06-21 06:40:00,
2013-06-20 23:45:00,49.8,49.0,30.04,SSW,208,0.0,0.0,97,0.00,,-RA,1.61,VWS V14.01,2013-06-21 06:45:00,
2013-06-20 23:50:00,49.8,49.0,30.04,SSW,208,0.0,0.0,97,0.00,,-RA,1.61,VWS V14.01,2013-06-21 06:50:00,
2013-06-20 23:55:00,49.8,49.0,30.04,SSW,208,0.0,0.0,97,0.00,,-RA,1.61,VWS V14.01,2013-06-21 06:55:00,